Location: Brachbach
(49.1847°N, 9.7240°E)
Time: 06:12:17
(UTC+00:00)

ISS - Visible Passes

Search period start: 15 January 2026 00:00
Search period end: 25 January 2026 00:00
Orbit: 414 x 424 km, 51.6° (Epoch: 14 January)

Date Brightness Start Highest point End Pass type
(mag) Time Alt. Az. Time Alt. Az. Time Alt. Az.
15 Jan -3.5 17:37:48 10° SW 17:41:03 55° SSE 17:41:35 48° ESE visible
16 Jan -2.9 16:50:17 10° SW 16:53:24 38° SSE 16:55:52 15° E visible
16 Jan -2.1 18:26:46 10° W 18:28:49 34° W 18:28:49 34° W visible
17 Jan -3.8 17:38:58 10° WSW 17:42:19 82° NNW 17:43:03 51° ENE visible
18 Jan -3.7 16:51:14 10° WSW 16:54:33 77° SSE 16:57:15 15° ENE visible
18 Jan -2.0 18:28:11 10° W 18:30:12 31° WNW 18:30:12 31° WNW visible
19 Jan -3.5 17:40:20 10° W 17:43:39 58° N 17:44:22 45° NE visible
20 Jan -3.6 16:52:28 10° W 16:55:48 67° NNW 16:58:32 14° ENE visible
20 Jan -2.0 18:29:31 10° WNW 18:31:29 31° WNW 18:31:29 31° WNW visible
21 Jan -3.5 17:41:39 10° WNW 17:44:58 54° N 17:45:38 44° NE visible
21 Jan -0.2 19:18:31 10° WNW 19:18:35 10° WNW 19:18:35 10° WNW visible
22 Jan -3.4 16:53:47 10° W 16:57:04 54° N 16:59:49 14° ENE visible
22 Jan -2.2 18:30:42 10° WNW 18:32:46 34° WNW 18:32:46 34° WNW visible
23 Jan -3.7 17:42:52 10° WNW 17:46:12 65° NNE 17:46:58 46° ENE visible
23 Jan -0.2 19:19:44 10° WNW 19:19:55 11° W 19:19:55 11° W visible
24 Jan -3.6 16:55:00 10° WNW 16:58:18 57° N 17:01:14 13° E visible
24 Jan -2.4 18:31:50 10° WNW 18:34:11 39° W 18:34:11 39° W visible
